Location: Asheville, NC
(35.6000°N, 82.5500°W)
Time: 10:55:04
(UTC-04:00)

XW-2D - Pass Details

Date: 13 February 2018
Orbit: 509 x 531 km, 97.5° (Epoch: 25 May)

Event Time Altitude Azimuth Distance (km) Brightness Sun altitude
Rises 06:22:19 0° 15° (NNE) 2,621 ? -12.1°
Reaches altitude 10° 06:24:25 10° 18° (NNE) 1,733 ? -11.7°
Maximum altitude 06:28:08 66° 101° (E) 563 ? -10.9°
Drops below altitude 10° 06:31:50 10° 184° (S) 1,731 ? -10.2°
Sets 06:33:56 0° 187° (S) 2,616 ? -9.8°
